| time (UTC) | temp F | wind direction | speed MPH | gust MPH | rain 1hr in | rain 24hr in | rain mn in | humidity % | barometer mb |
| 20260504042035 | 53 | 216 | 7.0 | 15.0 | 0.00 | 0.00 | 0.00 | 49 | 1009.7 |
| 20260504041534 | 53 | 250 | 4.0 | 15.0 | 0.00 | 0.00 | 0.00 | 48 | 1009.5 |
| 20260504041303 | 53 | 195 | 8.0 | 14.0 | 0.00 | 0.00 | 0.00 | 49 | 1009.7 |
| 20260504040534 | 53 | 216 | 6.0 | 14.0 | 0.00 | 0.00 | 0.00 | 48 | 1009.7 |
| 20260504040034 | 53 | 203 | 8.0 | 14.0 | 0.00 | 0.00 | 0.00 | 48 | 1009.8 |
| 20260504035534 | 53 | 196 | 8.0 | 15.0 | 0.00 | 0.00 | 0.00 | 48 | 1009.7 |
| 20260504035034 | 53 | 224 | 3.0 | 18.0 | 0.00 | 0.00 | 0.00 | 48 | 1009.8 |
| 20260504034533 | 54 | 218 | 6.0 | 25.0 | 0.00 | 0.00 | 0.00 | 47 | 1009.5 |
| 20260504034033 | 54 | 215 | 10.0 | 25.0 | 0.00 | 0.00 | 0.00 | 47 | 1009.8 |
| 20260504033533 | 53 | 163 | 4.0 | 15.0 | 0.00 | 0.00 | 0.00 | 48 | 1009.7 |
| 20260504033033 | 54 | 202 | 4.0 | 16.0 | 0.00 | 0.00 | 0.00 | 48 | 1009.8 |
| 20260504032532 | 54 | 241 | 10.0 | 16.0 | 0.00 | 0.00 | 0.00 | 47 | 1009.6 |
| 20260504032032 | 54 | 227 | 11.0 | 19.0 | 0.00 | 0.00 | 0.00 | 47 | 1009.6 |
| 20260504031750 | 54 | 225 | 11.0 | 19.0 | 0.00 | 0.00 | 0.00 | 47 | 1009.6 |
| 20260504031031 | 54 | 220 | 9.0 | 17.0 | 0.00 | 0.00 | 0.00 | 47 | 1009.5 |
| 20260504030531 | 53 | 189 | 3.0 | 15.0 | 0.00 | 0.00 | 0.00 | 48 | 1009.6 |
| 20260504030032 | 53 | 213 | 8.0 | 15.0 | 0.00 | 0.00 | 0.00 | 48 | 1009.6 |
| 20260504025531 | 53 | 229 | 9.0 | 16.0 | 0.00 | 0.00 | 0.00 | 48 | 1009.5 |
| 20260504025031 | 53 | 186 | 8.0 | 16.0 | 0.00 | 0.00 | 0.00 | 49 | 1009.6 |
| 20260504024751 | 53 | 237 | 11.0 | 15.0 | 0.00 | 0.00 | 0.00 | 49 | 1009.6 |
| 20260504024030 | 53 | 200 | 4.0 | 19.0 | 0.00 | 0.00 | 0.00 | 50 | 1009.6 |
| 20260504023530 | 53 | 268 | 2.0 | 19.0 | 0.00 | 0.00 | 0.00 | 50 | 1009.8 |
| 20260504023030 | 53 | 224 | 14.0 | 19.0 | 0.00 | 0.00 | 0.00 | 50 | 1009.8 |
| 20260504022530 | 53 | 195 | 3.0 | 17.0 | 0.00 | 0.00 | 0.00 | 50 | 1009.9 |
| 20260504022029 | 53 | 216 | 7.0 | 16.0 | 0.00 | 0.00 | 0.00 | 50 | 1009.8 |
| 20260504021529 | 53 | 194 | 4.0 | 15.0 | 0.00 | 0.00 | 0.00 | 49 | 1009.9 |
| 20260504021247 | 53 | 212 | 2.0 | 15.0 | 0.00 | 0.00 | 0.00 | 49 | 1009.9 |
| 20260504020529 | 53 | 190 | 4.0 | 20.0 | 0.00 | 0.00 | 0.00 | 49 | 1009.9 |
| 20260504020029 | 53 | 191 | 6.0 | 20.0 | 0.00 | 0.00 | 0.00 | 49 | 1010.1 |
| 20260504015749 | 53 | 237 | 5.0 | 16.0 | 0.00 | 0.00 | 0.00 | 49 | 1009.9 |
| 20260504015028 | 53 | 229 | 6.0 | 14.0 | 0.00 | 0.00 | 0.00 | 49 | 1010.1 |
| 20260504014528 | 53 | 220 | 2.0 | 13.0 | 0.00 | 0.00 | 0.00 | 50 | 1010.2 |
| 20260504014250 | 53 | 207 | 10.0 | 18.0 | 0.00 | 0.00 | 0.00 | 50 | 1010.1 |
| 20260504013527 | 53 | 204 | 8.0 | 18.0 | 0.00 | 0.00 | 0.00 | 50 | 1010.1 |
| 20260504013027 | 53 | 224 | 5.0 | 18.0 | 0.00 | 0.00 | 0.00 | 50 | 1010.2 |
| 20260504012530 | 52 | 214 | 8.0 | 13.0 | 0.00 | 0.00 | 0.00 | 52 | 1010.4 |
| 20260504012027 | 52 | 216 | 6.0 | 13.0 | 0.00 | 0.00 | 0.00 | 53 | 1010.1 |
| 20260504011527 | 52 | 199 | 5.0 | 15.0 | 0.00 | 0.00 | 0.00 | 52 | 1010.3 |
| 20260504011026 | 52 | 200 | 5.0 | 15.0 | 0.00 | 0.00 | 0.00 | 52 | 1010.4 |
| 20260504010526 | 52 | 252 | 7.0 | 18.0 | 0.00 | 0.00 | 0.00 | 52 | 1010.1 |
| 20260504010026 | 52 | 207 | 6.0 | 18.0 | 0.00 | 0.00 | 0.00 | 52 | 1010.1 |
| 20260504005526 | 52 | 205 | 4.0 | 15.0 | 0.00 | 0.00 | 0.00 | 52 | 1010.2 |
| 20260504005249 | 52 | 186 | 5.0 | 15.0 | 0.00 | 0.00 | 0.00 | 53 | 1010.0 |
| 20260504004755 | 52 | 227 | 8.0 | 15.0 | 0.00 | 0.00 | 0.00 | 53 | 1010.2 |
| 20260504004255 | 52 | 180 | 2.0 | 15.0 | 0.00 | 0.00 | 0.00 | 53 | 1010.3 |
| 20260504003525 | 52 | 218 | 10.0 | 13.0 | 0.00 | 0.00 | 0.00 | 55 | 1010.2 |
| 20260504003257 | 52 | 216 | 5.0 | 14.0 | 0.00 | 0.00 | 0.00 | 54 | 1010.0 |
| 20260504002525 | 52 | 205 | 6.0 | 14.0 | 0.00 | 0.00 | 0.00 | 54 | 1010.1 |
| 20260504002246 | 52 | 242 | 5.0 | 15.0 | 0.00 | 0.00 | 0.00 | 57 | 1010.0 |
| 20260504001746 | 52 | 253 | 3.0 | 15.0 | 0.00 | 0.00 | 0.00 | 57 | 1010.1 |
| 20260504001024 | 52 | 202 | 4.0 | 13.0 | 0.00 | 0.00 | 0.00 | 57 | 1010.4 |
| 20260504000741 | 52 | 143 | 4.0 | 14.0 | 0.00 | 0.00 | 0.00 | 58 | 1010.2 |
| 20260504000024 | 52 | 206 | 5.0 | 14.0 | 0.00 | 0.00 | 0.00 | 58 | 1010.3 |
| 20260503235747 | 52 | 223 | 5.0 | 12.0 | 0.00 | 0.00 | 0.00 | 58 | 1010.5 |
| 20260503235023 | 52 | 301 | 1.0 | 13.0 | 0.00 | 0.00 | 0.00 | 58 | 1010.5 |
| 20260503234523 | 52 | 205 | 4.0 | 15.0 | 0.00 | 0.00 | 0.00 | 57 | 1010.7 |
| 20260503234023 | 52 | 271 | 6.0 | 15.0 | 0.00 | 0.00 | 0.00 | 56 | 1010.5 |
| 20260503233523 | 52 | 203 | 4.0 | 17.0 | 0.00 | 0.00 | 0.00 | 57 | 1010.4 |
| 20260503233022 | 52 | 336 | 6.0 | 17.0 | 0.00 | 0.00 | 0.00 | 55 | 1010.5 |
| 20260503232522 | 52 | 177 | 2.0 | 17.0 | 0.00 | 0.00 | 0.00 | 54 | 1010.4 |
| 20260503232022 | 52 | 214 | 3.0 | 10.0 | 0.00 | 0.00 | 0.00 | 54 | 1010.2 |
| 20260503231522 | 53 | 219 | 3.0 | 13.0 | 0.00 | 0.00 | 0.00 | 54 | 1010.2 |
| 20260503231021 | 53 | 264 | 5.0 | 14.0 | 0.00 | 0.00 | 0.00 | 53 | 1010.3 |
| 20260503230521 | 53 | 248 | 4.0 | 16.0 | 0.00 | 0.00 | 0.00 | 53 | 1010.2 |
| 20260503230021 | 52 | 51 | 6.0 | 17.0 | 0.00 | 0.00 | 0.00 | 53 | 1010.2 |
| 20260503225742 | 52 | 246 | 7.0 | 17.0 | 0.00 | 0.00 | 0.00 | 53 | 1010.2 |
| 20260503225021 | 53 | 249 | 14.0 | 19.0 | 0.00 | 0.00 | 0.00 | 53 | 1010.6 |
| 20260503224521 | 53 | 222 | 2.0 | 23.0 | 0.00 | 0.00 | 0.00 | 53 | 1010.2 |
| 20260503224022 | 53 | 217 | 5.0 | 23.0 | 0.00 | 0.00 | 0.00 | 52 | 1010.3 |
| 20260503223520 | 53 | 204 | 17.0 | 23.0 | 0.00 | 0.00 | 0.00 | 53 | 1010.4 |
| 20260503223020 | 53 | 228 | 6.0 | 21.0 | 0.00 | 0.00 | 0.00 | 52 | 1010.1 |
| 20260503222520 | 53 | 206 | 7.0 | 21.0 | 0.00 | 0.00 | 0.00 | 52 | 1010.2 |
| 20260503222020 | 53 | 223 | 6.0 | 19.0 | 0.00 | 0.00 | 0.00 | 52 | 1009.9 |
| 20260503221520 | 53 | 202 | 11.0 | 18.0 | 0.00 | 0.00 | 0.00 | 53 | 1010.2 |
| 20260503221020 | 53 | 198 | 7.0 | 22.0 | 0.00 | 0.00 | 0.00 | 52 | 1010.2 |
| 20260503221006 | 53 | 272 | 5.0 | 22.0 | 0.00 | 0.00 | 0.00 | 52 | 1010.1 |
| 20260503220019 | 53 | 215 | 5.0 | 29.0 | 0.00 | 0.00 | 0.00 | 52 | 1010.2 |
| 20260503215519 | 53 | 217 | 19.0 | 29.0 | 0.00 | 0.00 | 0.00 | 51 | 1010.1 |
| 20260503215018 | 53 | 294 | 4.0 | 21.0 | 0.00 | 0.00 | 0.00 | 52 | 1010.0 |
| 20260503214518 | 53 | 226 | 12.0 | 25.0 | 0.00 | 0.00 | 0.00 | 51 | 1009.9 |
| 20260503214237 | 53 | 261 | 5.0 | 25.0 | 0.00 | 0.00 | 0.00 | 50 | 1010.0 |
| 20260503213518 | 53 | 293 | 2.0 | 25.0 | 0.00 | 0.00 | 0.00 | 51 | 1010.1 |
| 20260503213018 | 53 | 213 | 11.0 | 24.0 | 0.00 | 0.00 | 0.00 | 50 | 1010.1 |
| 20260503212518 | 53 | 259 | 4.0 | 24.0 | 0.00 | 0.00 | 0.00 | 49 | 1009.9 |
| 20260503212017 | 53 | 223 | 11.0 | 22.0 | 0.00 | 0.00 | 0.00 | 49 | 1010.3 |
| 20260503211517 | 54 | 229 | 10.0 | 22.0 | 0.00 | 0.00 | 0.00 | 47 | 1010.1 |
| 20260503211017 | 54 | 231 | 8.0 | 19.0 | 0.00 | 0.00 | 0.00 | 47 | 1010.1 |
| 20260503210516 | 54 | 318 | 4.0 | 19.0 | 0.00 | 0.00 | 0.00 | 46 | 1010.0 |
| 20260503210016 | 55 | 222 | 12.0 | 17.0 | 0.00 | 0.00 | 0.00 | 46 | 1010.0 |
| 20260503205516 | 55 | 217 | 5.0 | 17.0 | 0.00 | 0.00 | 0.00 | 47 | 1010.1 |
| 20260503205016 | 55 | 249 | 9.0 | 19.0 | 0.00 | 0.00 | 0.00 | 46 | 1010.3 |
| 20260503204516 | 55 | 225 | 5.0 | 19.0 | 0.00 | 0.00 | 0.00 | 47 | 1010.4 |
| 20260503204458 | 55 | 224 | 6.0 | 18.0 | 0.00 | 0.00 | 0.00 | 46 | 1010.2 |
| 20260503203515 | 55 | 304 | 7.0 | 19.0 | 0.00 | 0.00 | 0.00 | 45 | 1010.2 |
| 20260503203015 | 55 | 261 | 2.0 | 19.0 | 0.00 | 0.00 | 0.00 | 45 | 1010.3 |
| 20260503202515 | 55 | 218 | 3.0 | 23.0 | 0.00 | 0.00 | 0.00 | 45 | 1010.1 |
| 20260503202014 | 55 | 209 | 11.0 | 23.0 | 0.00 | 0.00 | 0.00 | 45 | 1010.5 |
| 20260503201515 | 56 | 207 | 8.0 | 21.0 | 0.00 | 0.00 | 0.00 | 46 | 1010.5 |
| 20260503201015 | 55 | 222 | 5.0 | 21.0 | 0.00 | 0.00 | 0.00 | 45 | 1010.5 |
| 20260503200514 | 55 | 214 | 11.0 | 17.0 | 0.00 | 0.00 | 0.00 | 45 | 1010.7 |
| 20260503200014 | 55 | 225 | 6.0 | 22.0 | 0.00 | 0.00 | 0.00 | 44 | 1010.7 |
| 20260503195513 | 55 | 204 | 5.0 | 25.0 | 0.00 | 0.00 | 0.00 | 45 | 1010.9 |
| 20260503195013 | 55 | 204 | 10.0 | 25.0 | 0.00 | 0.00 | 0.00 | 43 | 1010.6 |
| 20260503194513 | 55 | 244 | 9.0 | 21.0 | 0.00 | 0.00 | 0.00 | 43 | 1011.0 |
| 20260503194014 | 56 | 263 | 11.0 | 16.0 | 0.00 | 0.00 | 0.00 | 42 | 1010.9 |
| 20260503193512 | 56 | 259 | 2.0 | 23.0 | 0.00 | 0.00 | 0.00 | 42 | 1010.7 |
| 20260503193013 | 56 | 240 | 6.0 | 23.0 | 0.00 | 0.00 | 0.00 | 41 | 1011.0 |
| 20260503192513 | 56 | 239 | 12.0 | 21.0 | 0.00 | 0.00 | 0.00 | 39 | 1011.1 |
| 20260503192012 | 56 | 207 | 9.0 | 18.0 | 0.00 | 0.00 | 0.00 | 39 | 1011.1 |
| 20260503191512 | 56 | 240 | 10.0 | 24.0 | 0.00 | 0.01 | 0.00 | 39 | 1011.2 |
| 20260503191012 | 55 | 245 | 6.0 | 24.0 | 0.00 | 0.01 | 0.00 | 40 | 1011.4 |
| 20260503190512 | 55 | 227 | 17.0 | 24.0 | 0.00 | 0.01 | 0.00 | 39 | 1011.5 |
| 20260503190012 | 54 | 226 | 9.0 | 24.0 | 0.00 | 0.01 | 0.00 | 39 | 1011.5 |
| 20260503185511 | 55 | 204 | 6.0 | 22.0 | 0.00 | 0.01 | 0.00 | 39 | 1011.5 |
| 20260503185011 | 56 | 211 | 21.0 | 24.0 | 0.00 | 0.01 | 0.00 | 39 | 1011.6 |
| 20260503184511 | 55 | 308 | 6.0 | 25.0 | 0.00 | 0.01 | 0.00 | 41 | 1011.6 |
| 20260503184231 | 54 | 234 | 9.0 | 25.0 | 0.00 | 0.01 | 0.00 | 38 | 1011.6 |
| 20260503183511 | 54 | 210 | 10.0 | 25.0 | 0.00 | 0.01 | 0.00 | 38 | 1011.9 |
| 20260503183010 | 53 | 205 | 11.0 | 22.0 | 0.00 | 0.01 | 0.00 | 37 | 1011.9 |
| 20260503182510 | 54 | 236 | 10.0 | 22.0 | 0.00 | 0.01 | 0.00 | 38 | 1012.1 |
| 20260503182235 | 53 | 202 | 13.0 | 22.0 | 0.00 | 0.01 | 0.00 | 37 | 1011.9 |
| 20260503181509 | 54 | 198 | 11.0 | 20.0 | 0.00 | 0.01 | 0.00 | 37 | 1012.2 |
| 20260503181231 | 53 | 215 | 4.0 | 20.0 | 0.00 | 0.01 | 0.00 | 39 | 1012.3 |
| 20260503180510 | 53 | 238 | 6.0 | 20.0 | 0.00 | 0.01 | 0.00 | 39 | 1012.1 |
| 20260503180009 | 53 | 192 | 7.0 | 17.0 | 0.00 | 0.01 | 0.00 | 40 | 1012.5 |
| 20260503175509 | 53 | 226 | 10.0 | 17.0 | 0.00 | 0.01 | 0.00 | 41 | 1012.5 |
| 20260503175008 | 53 | 210 | 5.0 | 18.0 | 0.00 | 0.01 | 0.00 | 42 | 1012.5 |
| 20260503174508 | 52 | 218 | 7.0 | 18.0 | 0.00 | 0.01 | 0.00 | 42 | 1012.9 |
| 20260503174230 | 52 | 206 | 11.0 | 25.0 | 0.00 | 0.01 | 0.00 | 41 | 1012.8 |
| 20260503173508 | 51 | 211 | 10.0 | 25.0 | 0.00 | 0.01 | 0.00 | 41 | 1012.6 |
| 20260503173008 | 51 | 201 | 6.0 | 19.0 | 0.00 | 0.01 | 0.00 | 41 | 1012.9 |
| 20260503172509 | 53 | 196 | 6.0 | 19.0 | 0.00 | 0.01 | 0.00 | 39 | 1013.0 |
| 20260503172007 | 53 | 191 | 9.0 | 16.0 | 0.00 | 0.01 | 0.00 | 42 | 1012.9 |
| 20260503171507 | 53 | 296 | 8.0 | 13.0 | 0.00 | 0.01 | 0.00 | 42 | 1012.8 |
| 20260503171228 | 53 | 292 | 3.0 | 16.0 | 0.00 | 0.01 | 0.00 | 41 | 1013.0 |
| 20260503170507 | 53 | 248 | 8.0 | 16.0 | 0.00 | 0.01 | 0.00 | 39 | 1013.0 |
| 20260503151002 | 50 | 207 | 5.0 | 12.0 | 0.00 | 0.01 | 0.00 | 57 | 1013.9 |
| 20260503150502 | 50 | 263 | 6.0 | 14.0 | 0.00 | 0.01 | 0.00 | 58 | 1013.8 |
| 20260503150447 | 49 | 205 | 7.0 | 21.0 | 0.00 | 0.01 | 0.00 | 60 | 1013.8 |
| 20260503130957 | 44 | 191 | 8.0 | 14.0 | 0.00 | 0.01 | 0.00 | 69 | 1014.6 |
| 20260503130457 | 44 | 193 | 5.0 | 10.0 | 0.00 | 0.01 | 0.00 | 70 | 1014.7 |
| 20260503110713 | 35 | 191 | 2.0 | 5.0 | 0.00 | 0.01 | 0.00 | 81 | 1014.4 |
| 20260503100154 | 33 | 211 | 2.0 | 4.0 | 0.00 | 0.01 | 0.00 | 89 | 1014.3 |
| 20260503090447 | 34 | 359 | 0.0 | 5.0 | 0.00 | 0.01 | 0.00 | 89 | 1014.5 |
| 20260503081445 | 34 | 208 | 2.0 | 3.0 | 0.00 | 0.01 | 0.00 | 93 | 1014.4 |
| 20260503081201 | 34 | 187 | 0.0 | 5.0 | 0.00 | 0.01 | 0.00 | 91 | 1014.7 |
| 20260503080710 | 34 | 286 | 0.0 | 5.0 | 0.00 | 0.01 | 0.00 | 90 | 1014.4 |
| 20260503072943 | 35 | 182 | 4.0 | 5.0 | 0.00 | 0.01 | 0.00 | 89 | 1014.5 |
| 20260503072703 | 35 | 213 | 5.0 | 6.0 | 0.00 | 0.01 | 0.00 | 89 | 1014.5 |
| 20260503071943 | 35 | 196 | 5.0 | 6.0 | 0.00 | 0.01 | 0.00 | 89 | 1014.4 |
| 20260503071442 | 35 | 209 | 4.0 | 6.0 | 0.00 | 0.01 | 0.00 | 91 | 1014.4 |
| 20260503071207 | 35 | 191 | 4.0 | 7.0 | 0.00 | 0.01 | 0.00 | 89 | 1014.5 |
| 20260503070442 | 36 | 192 | 4.0 | 7.0 | 0.00 | 0.01 | 0.00 | 87 | 1014.5 |
| 20260503054939 | 37 | 187 | 4.0 | 8.0 | 0.00 | 0.01 | 0.00 | 83 | 1014.9 |
| 20260503054439 | 37 | 176 | 3.0 | 6.0 | 0.00 | 0.01 | 0.00 | 83 | 1014.9 |
| 20260503054159 | 37 | 195 | 5.0 | 6.0 | 0.00 | 0.01 | 0.00 | 82 | 1014.8 |
| 20260503053438 | 37 | 207 | 3.0 | 6.0 | 0.00 | 0.01 | 0.00 | 83 | 1014.9 |
| 20260503052938 | 37 | 210 | 3.0 | 7.0 | 0.00 | 0.01 | 0.00 | 83 | 1015.0 |
| 20260503052438 | 37 | 194 | 2.0 | 7.0 | 0.00 | 0.01 | 0.00 | 81 | 1014.9 |
| 20260503051938 | 38 | 210 | 3.0 | 6.0 | 0.00 | 0.01 | 0.00 | 79 | 1015.0 |
| 20260503051438 | 38 | 206 | 3.0 | 6.0 | 0.00 | 0.01 | 0.00 | 79 | 1014.9 |
| 20260503050937 | 38 | 188 | 2.0 | 6.0 | 0.00 | 0.01 | 0.00 | 78 | 1015.3 |
| 20260503050437 | 38 | 195 | 4.0 | 7.0 | 0.00 | 0.01 | 0.00 | 78 | 1015.2 |
| 20260503045937 | 38 | 213 | 4.0 | 7.0 | 0.00 | 0.01 | 0.00 | 78 | 1015.1 |
| 20260503045918 | 39 | 213 | 1.0 | 9.0 | 0.00 | 0.01 | 0.00 | 78 | 1015.2 |
| 20260503044937 | 39 | 214 | 4.0 | 9.0 | 0.00 | 0.01 | 0.00 | 77 | 1015.2 |
| 20260503044436 | 38 | 168 | 4.0 | 8.0 | 0.00 | 0.01 | 0.00 | 78 | 1015.1 |
| 20260503043936 | 39 | 234 | 2.0 | 10.0 | 0.00 | 0.01 | 0.00 | 76 | 1015.4 |
| 20260503043436 | 39 | 225 | 4.0 | 10.0 | 0.00 | 0.01 | 0.00 | 75 | 1015.3 |
| 20260503042936 | 39 | 215 | 3.0 | 7.0 | 0.00 | 0.01 | 0.00 | 75 | 1015.3 |
| 20260503042435 | 39 | 224 | 4.0 | 7.0 | 0.00 | 0.01 | 0.00 | 74 | 1015.4 |